Dewpoint
59 58 58 59 59 59 58 59 59 60 61 61 61 61 62 62 61 51 36 41 47 62 60 46 38 39 44 44 46 46 32 25 26 29 26 29 29 32 32 31 32 32 36 40 48
58 58 59 59 59 58 58 58 59 59 60 61 61 61 61 62 46 34 50 63 64 64 41 38 37 37 36 39 43 38 29 24 30 31 28 29 30 31 32 31 32 33 35 37 47
58 58 58 59 59 58 58 58 58 58 59 60 61 61 61 58 35 29 62 65 64 57 42 39 37 35 34 38 36 36 29 30 31 32 32 30 32 33 32 34 35 35 35 38 41
58 58 58 58 59 59 58 58 58 57 58 59 60 61 61 50 22 36 66 67 63 47 40 39 38 37 35 32 33 30 31 31 32 32 35 33 33 32 34 36 38 40 40 40 40
58 58 58 58 58 58 59 58 58 57 57 59 60 61 53 34 29 43 67 65 51 43 37 36 35 36 33 33 34 31 31 32 33 33 34 35 34 33 35 38 39 40 41 41 41
59 59 59 59 59 58 58 58 58 57 57 59 60 60 41 29 36 45 48 49 41 39 37 36 32 35 32 33 33 33 33 33 34 34 34 34 34 35 36 38 39 40 40 41 42
61 61 60 60 59 59 59 59 58 58 58 59 60 54 40 28 38 48 45 40 41 38 36 37 37 34 36 34 36 35 32 31 32 30 31 36 34 34 35 38 37 38 40 42 43
62 62 61 61 60 60 60 60 59 59 58 59 60 50 28 37 42 45 40 38 40 40 40 40 39 36 36 37 31 29 29 23 27 27 32 34 26 33 37 37 37 38 38 42 42
59 60 61 61 61 61 60 60 57 57 59 59 50 41 26 46 38 40 37 36 39 40 41 39 40 38 37 33 25 25 14 20 21 27 27 32 27 33 38 38 37 38 38 40 41
58 60 60 61 61 61 60 56 56 55 55 53 51 38 33 30 36 37 38 38 37 39 39 38 37 34 33 29 19 16 16 17 19 23 27 27 27 29 36 37 37 38 39 40 41
58 58 58 59 59 60 51 43 37 36 44 33 32 29 27 34 37 36 36 37 37 36 30 36 31 27 26 29 27 23 21 20 19 23 26 27 30 31 34 38 39 40 40 40 41
55 56 56 57 57 58 41 40 42 43 36 38 37 35 38 34 32 34 36 32 34 29 32 31 28 27 29 29 27 24 21 21 21 25 30 27 28 29 35 38 40 40 40 42 45
52 54 56 56 57 46 40 40 41 45 38 33 35 32 32 34 29 32 35 32 31 30 30 26 25 27 29 27 26 24 21 20 18 23 28 30 29 32 37 39 39 41 43 45 48
53 54 53 54 51 53 37 41 44 46 30 22 27 32 33 32 31 32 35 33 31 28 28 28 27 26 27 25 24 21 22 22 22 25 19 30 18 31 33 35 37 40 42 46 49
53 53 53 54 53 52 43 45 46 42 8 22 30 35 32 26 28 31 36 32 28 28 29 26 25 26 27 25 24 21 27 26 28 27 28 28 27 25 32 32 33 40 44 48 50
53 53 53 43 43 50 48 51 45 27 12 20 31 32 28 28 28 30 32 30 30 28 27 25 23 24 22 23 23 31 30 31 33 30 26 26 27 20 27 30 36 40 44 48 49
53 52 48 43 35 46 49 45 28 20 20 17 28 31 27 25 26 28 29 27 25 24 24 25 24 22 23 24 28 28 24 27 25 31 23 30 30 25 30 38 40 41 45 47 49
53 51 45 42 41 47 48 39 27 22 19 29 29 30 27 27 25 27 27 26 26 24 24 23 21 24 22 21 21 23 21 29 32 22 29 28 29 28 32 39 44 45 46 47 49
50 45 44 40 45 51 46 33 27 25 20 18 23 28 27 27 27 27 26 24 25 25 21 20 21 22 23 22 22 26 23 25 27 30 27 30 27 33 40 39 42 45 46 47 48
47 43 40 40 44 49 39 35 32 32 26 26 20 21 24 26 25 26 26 26 27 26 23 21 19 20 28 27 31 27 27 24 27 31 18 13 15 14 35 36 39 44 45 47 49
45 37 37 47 48 43 32 27 29 36 35 29 22 22 21 25 26 26 25 26 29 28 26 23 20 19 26 23 22 27 23 25 27 24 14 9 9 21 27 31 35 43 45 46 48
42 33 42 48 39 38 33 29 31 28 34 32 30 27 27 27 26 26 26 25 29 28 25 25 21 18 18 19 21 23 20 22 14 21 22 19 14 24 25 29 38 43 45 46 48
38 35 41 40 31 34 30 30 30 30 29 31 30 31 27 27 26 27 27 32 33 28 26 24 20 17 18 20 24 23 25 23 20 24 20 16 15 28 30 34 41 43 45 46 48
39 30 36 40 30 26 21 20 20 27 33 31 31 32 30 27 27 26 26 30 32 29 42 33 23 17 15 17 20 20 21 23 19 16 14 17 15 28 31 35 41 43 45 46 47
40 32 28 31 31 29 28 25 22 21 23 33 32 27 34 31 29 29 27 27 30 30 32 25 21 20 19 19 21 20 21 23 20 17 14 14 18 16 30 34 39 44 45 45 46
37 32 34 27 26 26 27 25 25 23 23 25 28 30 31 32 30 29 26 26 27 33 27 26 21 21 19 21 20 19 20 22 21 19 18 16 16 19 20 32 36 42 45 45 46
42 39 35 28 27 28 26 24 25 24 23 23 24 25 29 32 31 32 31 32 31 29 26 24 24 22 17 21 22 19 22 21 22 22 21 19 21 19 24 31 35 40 45 46 46
Lifted_Index
9 8 8 7 7 7 7 7 6 6 5 5 5 4 4 5 6 7 8 8 6 5 5 7 8 8 7 7 7 7 7 6 7 8 9 10 10 10 9 9 8 8 7 6 4
9 9 8 8 7 7 7 7 7 6 6 5 5 5 5 5 6 7 7 6 5 5 6 8 8 8 8 7 7 7 7 7 8 8 9 10 10 9 9 8 8 8 7 6 5
9 9 9 8 8 7 7 7 7 7 7 6 6 5 5 6 7 7 6 4 4 5 7 8 8 8 8 8 8 8 8 8 9 9 9 9 9 9 8 8 8 7 7 6 5
9 9 9 9 8 8 7 7 7 7 7 7 6 6 6 6 7 6 4 3 4 6 8 8 8 8 8 8 8 8 9 9 9 9 9 9 9 9 8 8 8 7 7 6 5
9 9 9 9 9 8 8 7 8 8 8 7 6 6 7 8 8 6 4 3 5 7 8 8 8 8 8 8 8 8 9 9 9 9 9 9 8 8 8 8 7 7 6 5 5
8 8 8 8 9 8 8 8 8 8 8 7 6 7 8 8 8 6 5 5 7 8 8 8 8 8 8 8 8 8 8 8 8 8 8 8 8 8 8 7 7 6 6 5 4
7 7 8 8 8 8 8 8 8 8 8 7 6 7 8 9 8 7 7 7 8 8 8 8 8 8 8 8 8 8 8 8 8 8 8 8 8 8 8 7 7 6 5 5 4
7 7 7 7 7 7 8 8 8 8 7 6 6 7 8 9 8 7 8 8 8 8 8 8 8 8 8 8 8 8 8 8 8 9 9 8 7 7 7 7 6 5 5 4 4
7 7 7 7 7 7 7 8 8 8 7 6 7 8 9 9 9 8 8 8 8 8 8 8 7 7 7 7 7 7 7 7 8 9 9 8 8 7 7 7 6 5 5 4 3
8 8 7 7 7 7 8 9 9 8 7 7 7 8 9 9 9 9 8 8 8 8 7 7 7 7 7 7 6 6 7 7 8 9 9 8 8 7 7 6 6 5 4 4 3
9 8 8 7 7 8 9 10 9 9 8 8 8 8 9 9 8 8 8 8 8 7 7 7 7 7 7 7 7 7 7 7 8 9 9 8 8 7 7 6 6 5 4 3 3
11 10 9 8 7 8 10 10 10 9 9 9 9 9 8 8 8 8 8 8 7 7 7 7 7 7 8 8 8 8 7 7 8 9 8 8 7 7 7 6 6 5 4 3 3
12 11 10 8 7 8 10 10 10 9 9 9 9 9 8 8 8 7 7 7 7 7 7 7 7 8 8 8 8 8 7 7 8 8 8 7 6 6 7 7 6 6 4 3 2
12 12 11 10 7 7 9 10 9 8 8 8 9 9 9 8 8 7 7 7 7 7 7 7 7 7 7 8 8 8 8 8 8 7 6 6 5 5 6 7 6 6 4 3 2
12 12 12 11 9 7 7 9 9 7 6 8 9 9 9 8 8 8 7 7 7 7 7 7 7 7 7 8 8 8 8 8 8 6 5 5 4 5 6 7 6 5 4 3 2
12 12 12 12 10 7 6 7 7 6 6 7 9 8 7 7 7 7 7 6 6 6 6 6 7 7 7 8 8 8 8 7 6 5 4 4 4 5 6 6 6 5 4 3 3
12 12 13 13 11 8 6 6 6 6 7 7 8 7 6 6 7 7 7 6 5 5 5 5 5 6 7 8 8 8 7 4 3 2 3 4 4 5 6 6 6 5 4 4 4
12 12 13 13 11 8 6 4 4 6 7 7 7 6 5 5 5 6 6 5 5 5 4 3 4 5 7 7 7 7 6 4 2 2 2 4 4 5 7 7 6 5 5 4 4
12 12 12 12 10 7 5 4 5 5 6 6 6 5 5 4 4 4 5 5 5 5 4 3 3 5 7 7 7 7 6 5 4 2 2 3 4 5 6 7 6 6 5 4 4
12 12 12 10 8 6 6 5 5 5 5 5 5 4 4 3 3 3 3 4 5 5 5 4 4 5 6 7 7 6 6 6 5 3 1 2 3 5 6 7 7 6 5 5 4
10 11 10 8 6 6 6 6 5 5 4 4 4 4 3 3 2 2 2 3 4 4 5 4 4 4 5 5 6 6 6 6 5 3 2 1 3 5 7 7 7 6 5 5 5
8 9 8 6 5 5 5 5 5 5 4 3 3 3 3 3 2 2 2 2 3 3 4 4 4 3 4 5 6 6 6 6 5 4 3 2 3 6 8 8 7 6 5 5 5
6 7 7 6 5 5 5 5 5 5 4 3 3 3 3 2 2 2 2 2 2 2 3 4 4 3 3 4 5 5 5 6 5 4 3 2 4 6 8 8 6 6 6 6 6
4 5 5 4 4 4 4 4 5 5 4 3 3 2 2 2 2 2 2 2 1 1 3 3 3 3 3 3 4 4 4 5 5 4 3 3 4 6 8 8 7 6 6 6 6
3 3 3 3 3 3 3 4 4 5 4 3 2 2 2 2 2 2 2 2 1 1 2 3 3 3 3 3 4 4 4 4 5 4 3 3 4 6 7 8 7 6 6 6 6
2 2 2 2 2 2 2 3 3 3 3 3 2 2 3 3 3 3 3 3 2 1 2 2 3 3 3 4 4 4 4 5 5 5 4 4 5 6 8 8 7 7 6 6 6
2 2 2 2 2 2 2 2 2 2 3 3 3 3 3 3 3 3 3 4 3 2 2 2 2 2 3 3 4 4 4 5 5 5 4 4 5 6 7 8 7 7 6 6 6